Tracking 33199 objects as of 16-Feb-2026
HD Live streaming from Space Station
objects crossing your sky now

SL-8 DEB

Track SL-8 DEB now!
10-day predictions


NORAD ID: 27746
Int'l Code: 1991-009DB
Perigee: 1,483.7 km
Apogee: 1,763.1 km
Inclination: 74.1 °
Period: 118.6 minutes
Semi major axis: 7994 km
RCS: 0.0277 m2 (small)
Launch date: February 12, 1991
Source: Commonwealth of Independent States (former USSR) (CIS)
Launch site: PLESETSK MISSILE AND SPACE COMPLEX (PKMTR)

Note: This is SATELLITE DEBRIS
Your satellite tracking list
Your tracking list is empty




NASA's NSSDC Master Catalog

Two Line Element Set (TLE):
1 27746U 91009DB  26044.49080116  .00000007  00000-0  21124-3 0  9990
2 27746  74.0987 228.1600 0174727 236.6966 149.3607 12.14573810558749
Source of the keplerian elements: AFSPC